Weather in Bagan

Russia / Novosibirsk Oblast     54°05′50″N   77°39′56″E
temp.,
°C
wind,
m/s
gust,
m/s
humid.,
%
clouds,
%
prec.,
mm/h
press.,
hPa
HPBL,
m
23 may, mon
mon2301:00+13wsw7133198 0.0 10111116
04:00+11wsw613390 0.0 1015739
07:00+10sw510500 0.0 1017503
10:00+14sw68385 0.0 10201247
13:00+18sw68305 0.0 10202121
16:00+20sw57275 0.0 10192358
19:00+21ssw57275 0.0 10192362
22:00+17sse453661 0.0 101965
24 may, tue
tue2401:00+14sse410375 0.0 1019164
04:00+13s47405 0.0 1019101
07:00+13sse36430 0.0 1020114
10:00+20s45292 0.0 1020545
13:00+24sse2223100 0.0 10191651
16:00+25e2224100 0.0 10172132
19:00+25ene3327100 0.0 10172038
22:00+20e354292 0.0 101878
25 may, wed
wed2501:00+17ene224696 0.0 101714
04:00+16nne335151 0.0 101820
07:00+16ne355511 0.0 1018110
10:00+22ne573929 0.0 1018655
13:00+26ene56300 0.0 10171763
16:00+28ene67280 0.0 10162152
19:00+27ene78310 0.0 10151987
22:00+21ene334740 0.0 101619
26 may, thu
thu2601:00+19ese3354100 0.0 101642
04:00+17ene4555100 0.0 101677
07:00+17e4106073 0.0 1016236
10:00+23e711450 0.0 1015750
13:00+27e810340 0.0 10131684
16:00+29ese78290 0.0 10122147
19:00+29ese66300 0.0 10112082
22:00+22e713520 0.0 1011316
27 may, fri
fri2701:00+20ese715520 0.0 1009325
04:00+18ese411580 0.0 1010233
07:00+18se38611 0.0 1010210
10:00+24ssw3353100 0.3 1010539
13:00+25wnw4345100 0.8 10111063
16:00+27nw5443100 0.0 10111771
19:00+26nw43395 0.0 10111777
22:00+20nnw49500 0.0 1012245